When you browse on this site, cookies collect data to enhance your experience and personalize the content and advertising you see.
Visit our Privacy Policy to learn more. By continuing to use the site, you agree to this use of cookies and data.
  • In Hungary
  • List of Countries
  • For 7 days
  • Water Temperature
  • Weather Map
  • News
  • Weather Widgets
  • user-avatar
    Login

    Hourly Weather Suchitoto

    Today, 21 August, Wednesday

    Time Temperature Precipitation Wind Pressure Humidity
    00:00 +22°C° 0.9 mm 0 mps 728 mmHg 96%
    01:00 +22°C° 2 mm 0 mps 728 mmHg 97%
    02:00 +22°C° 2 mm 0 mps 728 mmHg 97%
    03:00 +22°C° 2 mm 0 mps 727 mmHg 98%
    04:00 +21°C° 0.2 mm 0 mps 727 mmHg 98%
    05:00 +21°C° 0.2 mm 0 mps 727 mmHg 98%
    06:00 +21°C° 0.2 mm 0 mps 727 mmHg 98%
    07:00 +23°C° 0 mm 0 mps 728 mmHg 92%
    08:00 +25°C° 0 mm 0 mps 728 mmHg 86%
    09:00 +27°C° 0 mm 0 mps 729 mmHg 81%
    10:00 +28°C° 0.3 mm 0 mps 729 mmHg 77%
    11:00 +32°C° 0.3 mm 1 mps 729 mmHg 73%
    12:00 +33°C° 0.3 mm 1 mps 728 mmHg 69%
    13:00 +32°C° 0.9 mm 1 mps 728 mmHg 71%
    14:00 +32°C° 0.9 mm 1 mps 727 mmHg 73%
    15:00 +32°C° 0.9 mm 1 mps 727 mmHg 75%
    16:00 +28°C° 1.3 mm 0 mps 727 mmHg 81%
    17:00 +27°C° 1.3 mm 0 mps 727 mmHg 87%
    18:00 +25°C° 1.3 mm 0 mps 727 mmHg 93%
    19:00 +24°C° 0.4 mm 0 mps 727 mmHg 93%
    20:00 +24°C° 0.4 mm 0 mps 728 mmHg 94%
    21:00 +23°C° 0.4 mm 0 mps 728 mmHg 95%
    22:00 +23°C° 1.9 mm 0 mps 728 mmHg 95%
    23:00 +22°C° 1.9 mm 0 mps 728 mmHg 96%

    Tomorrow, 22 August, Thursday

    Time Temperature Precipitation Wind Pressure Humidity
    00:00 +22°C° 1.9 mm 0 mps 728 mmHg 97%
    01:00 +22°C° 0.8 mm 0 mps 728 mmHg 97%
    02:00 +22°C° 0.8 mm 0 mps 728 mmHg 97%
    03:00 +21°C° 0.8 mm 0 mps 727 mmHg 97%
    04:00 +21°C° 0 mm 0 mps 728 mmHg 97%
    05:00 +21°C° 0 mm 0 mps 728 mmHg 97%
    06:00 +21°C° 0 mm 0 mps 728 mmHg 97%
    07:00 +23°C° 0 mm 0 mps 728 mmHg 92%
    08:00 +25°C° 0 mm 0 mps 729 mmHg 87%
    09:00 +27°C° 0 mm 0 mps 729 mmHg 82%
    10:00 +28°C° 0 mm 0 mps 729 mmHg 75%
    11:00 +32°C° 0 mm 1 mps 729 mmHg 69%
    12:00 +34°C° 0 mm 1 mps 728 mmHg 62%
    13:00 +34°C° 0.1 mm 1 mps 728 mmHg 62%
    14:00 +34°C° 0.1 mm 1 mps 727 mmHg 62%
    15:00 +32°C° 0.1 mm 0 mps 727 mmHg 61%
    16:00 +30°C° 0.5 mm 0 mps 727 mmHg 70%
    17:00 +28°C° 0.5 mm 0 mps 727 mmHg 79%
    18:00 +26°C° 0.5 mm 0 mps 726 mmHg 87%
    19:00 +25°C° 0.2 mm 0 mps 727 mmHg 89%
    20:00 +24°C° 0.2 mm 0 mps 728 mmHg 91%
    21:00 +23°C° 0.2 mm 0 mps 728 mmHg 93%
    22:00 +22°C° 0.6 mm 0 mps 728 mmHg 94%
    23:00 +22°C° 0.6 mm 0 mps 728 mmHg 94%

    Day after tomorrow, 23 August, Friday

    Time Temperature Precipitation Wind Pressure Humidity
    00:00 +22°C° 0.6 mm 0 mps 728 mmHg 95%
    01:00 +22°C° 0.1 mm 0 mps 728 mmHg 95%
    02:00 +21°C° 0.1 mm 0 mps 727 mmHg 95%
    03:00 +21°C° 0.1 mm 0 mps 727 mmHg 96%
    04:00 +21°C° 0 mm 0 mps 727 mmHg 96%
    05:00 +21°C° 0 mm 0 mps 728 mmHg 96%
    06:00 +21°C° 0 mm 0 mps 728 mmHg 96%
    07:00 +23°C° 0 mm 0 mps 728 mmHg 89%
    08:00 +25°C° 0 mm 0 mps 729 mmHg 83%
    09:00 +28°C° 0 mm 0 mps 729 mmHg 76%
    10:00 +29°C° 0 mm 0 mps 729 mmHg 70%
    11:00 +33°C° 0 mm 1 mps 729 mmHg 64%
    12:00 +34°C° 0 mm 1 mps 729 mmHg 57%
    13:00 +34°C° 0 mm 1 mps 728 mmHg 57%
    14:00 +34°C° 0 mm 1 mps 728 mmHg 56%
    15:00 +34°C° 0 mm 1 mps 727 mmHg 55%
    16:00 +32°C° 0 mm 1 mps 727 mmHg 65%
    17:00 +30°C° 0 mm 1 mps 727 mmHg 74%
    18:00 +26°C° 0 mm 0 mps 727 mmHg 84%
    19:00 +25°C° 0.1 mm 0 mps 727 mmHg 87%
    20:00 +24°C° 0.1 mm 0 mps 728 mmHg 90%
    21:00 +23°C° 0.1 mm 0 mps 728 mmHg 93%
    22:00 +23°C° 0 mm 0 mps 728 mmHg 93%
    23:00 +22°C° 0 mm 0 mps 728 mmHg 93%

    24 August, Saturday

    Time Temperature Precipitation Wind Pressure Humidity
    00:00 +22°C° 0 mm 0 mps 728 mmHg 92%
    01:00 +22°C° 0 mm 0 mps 728 mmHg 93%
    02:00 +21°C° 0 mm 0 mps 727 mmHg 94%
    03:00 +21°C° 0 mm 0 mps 727 mmHg 95%
    04:00 +21°C° 0 mm 0 mps 727 mmHg 95%
    05:00 +21°C° 0 mm 0 mps 728 mmHg 95%
    06:00 +21°C° 0 mm 0 mps 728 mmHg 96%
    07:00 +23°C° 0 mm 0 mps 728 mmHg 88%
    08:00 +25°C° 0 mm 0 mps 729 mmHg 81%
    09:00 +28°C° 0 mm 0 mps 729 mmHg 74%
    10:00 +29°C° 0 mm 0 mps 729 mmHg 70%
    11:00 +32°C° 0 mm 1 mps 729 mmHg 66%
    12:00 +34°C° 0 mm 1 mps 728 mmHg 61%
    13:00 +33°C° 0.7 mm 1 mps 728 mmHg 63%
    14:00 +33°C° 0.7 mm 1 mps 727 mmHg 65%
    15:00 +31°C° 0.7 mm 0 mps 727 mmHg 67%
    16:00 +29°C° 1.3 mm 0 mps 727 mmHg 75%
    17:00 +29°C° 1.3 mm 1 mps 727 mmHg 83%
    18:00 +27°C° 1.3 mm 1 mps 727 mmHg 90%
    19:00 +25°C° 0.1 mm 0 mps 727 mmHg 92%
    20:00 +24°C° 0.1 mm 0 mps 728 mmHg 93%
    21:00 +23°C° 0.1 mm 0 mps 728 mmHg 94%
    22:00 +23°C° 0 mm 0 mps 728 mmHg 94%
    23:00 +22°C° 0 mm 0 mps 728 mmHg 94%

    25 August, Sunday

    Time Temperature Precipitation Wind Pressure Humidity
    00:00 +22°C° 0 mm 0 mps 728 mmHg 95%
    01:00 +22°C° 0 mm 0 mps 727 mmHg 95%
    02:00 +22°C° 0 mm 0 mps 727 mmHg 96%
    03:00 +21°C° 0 mm 0 mps 726 mmHg 96%
    04:00 +21°C° 0 mm 0 mps 727 mmHg 96%
    05:00 +21°C° 0 mm 0 mps 727 mmHg 96%
    06:00 +21°C° 0 mm 0 mps 727 mmHg 96%
    07:00 +23°C° 0 mm 0 mps 727 mmHg 89%
    08:00 +26°C° 0 mm 0 mps 728 mmHg 82%
    09:00 +28°C° 0 mm 0 mps 728 mmHg 75%
    10:00 +29°C° 0.2 mm 0 mps 728 mmHg 73%
    11:00 +30°C° 0.2 mm 0 mps 728 mmHg 71%
    12:00 +31°C° 0.2 mm 0 mps 728 mmHg 69%
    13:00 +30°C° 0.8 mm 0 mps 727 mmHg 72%
    14:00 +32°C° 0.8 mm 1 mps 726 mmHg 76%
    15:00 +31°C° 0.8 mm 1 mps 726 mmHg 79%
    16:00 +30°C° 1.1 mm 1 mps 726 mmHg 84%
    17:00 +26°C° 1.1 mm 0 mps 726 mmHg 88%
    18:00 +25°C° 1.1 mm 0 mps 726 mmHg 92%
    19:00 +24°C° 0.2 mm 0 mps 726 mmHg 93%
    20:00 +23°C° 0.2 mm 0 mps 727 mmHg 94%
    21:00 +23°C° 0.2 mm 0 mps 727 mmHg 95%
    22:00 +22°C° 0 mm 0 mps 727 mmHg 96%
    23:00 +22°C° 0 mm 0 mps 727 mmHg 96%

    26 August, Monday

    Time Temperature Precipitation Wind Pressure Humidity
    00:00 +22°C° 0 mm 0 mps 727 mmHg 96%
    01:00 +22°C° 0 mm 0 mps 726 mmHg 96%
    02:00 +21°C° 0 mm 0 mps 726 mmHg 96%
    03:00 +21°C° 0 mm 0 mps 726 mmHg 96%
    04:00 +21°C° 0.1 mm 0 mps 726 mmHg 96%
    05:00 +21°C° 0.1 mm 0 mps 726 mmHg 96%
    06:00 +21°C° 0.1 mm 0 mps 726 mmHg 96%
    07:00 +23°C° 0.1 mm 0 mps 727 mmHg 91%
    08:00 +25°C° 0.1 mm 0 mps 727 mmHg 86%
    09:00 +27°C° 0.1 mm 0 mps 727 mmHg 82%
    10:00 +28°C° 1.1 mm 0 mps 727 mmHg 78%
    11:00 +29°C° 1.1 mm 0 mps 727 mmHg 75%
    12:00 +30°C° 1.1 mm 0 mps 727 mmHg 71%
    13:00 +30°C° 1.1 mm 0 mps 726 mmHg 74%
    14:00 +29°C° 1.1 mm 0 mps 726 mmHg 77%
    15:00 +31°C° 1.1 mm 1 mps 725 mmHg 79%
    16:00 +27°C° 0.7 mm 0 mps 725 mmHg 84%
    17:00 +26°C° 0.7 mm 0 mps 725 mmHg 88%
    18:00 +25°C° 0.7 mm 0 mps 726 mmHg 92%
    19:00 +24°C° 1.6 mm 0 mps 726 mmHg 93%
    20:00 +24°C° 1.6 mm 0 mps 727 mmHg 94%
    21:00 +25°C° 1.6 mm 1 mps 727 mmHg 95%
    22:00 +25°C° 0.1 mm 1 mps 727 mmHg 95%
    23:00 +24°C° 0.1 mm 1 mps 727 mmHg 95%
    Show more